Regional Weather Roundup
Issued by NWS

Home | Current Version | Previous Version | Text Only | Print | Product List | Glossary On
Versions: 1 2 3 4 5 6 7 8 9 10 11 12 13 14 15 16 17 18 19 20 21 22 23 24 25 26 27 28 29 30 31 32 33 34 35 36 37 38 39 40 41 42 43 44 45 46 47 48 49 50
000
ASUS44 KOUN 210010
RWROK

WEATHER ROUNDUP FOR OKLAHOMA
NATIONAL WEATHER SERVICE NORMAN OK
700 PM CDT SUN APR 20 2014

NOTE: "FAIR" INDICATES FEW OR NO CLOUDS BELOW 12,000 FEET WITH NO
      SIGNIFICANT WEATHER AND/OR OBSTRUCTIONS TO VISIBILITY.

OKZ001>007-009>012-014-015-017-210100-
NORTHWEST OKLAHOMA AND THE PANHANDLE

CITY           SKY/WX    TMP DP  RH WIND       PRES   REMARKS
GAGE           LGT RAIN  59  50  72 SW18G37   29.98R
6HR MIN TEMP:  59; 6HR MAX TEMP:  80; 6HR PCP: TRACE;

ENID/VANCE AFB CLOUDY    71  57  61 S21G32    29.98S
ENID/WOODRING  PTSUNNY   70  55  60 SE18G30   29.98S
$$

OKZ016-021>023-033>039-044-045-210100-
SOUTHWEST OKLAHOMA

CITY           SKY/WX    TMP DP  RH WIND       PRES   REMARKS
LAWTON/REGL    MOSUNNY   64  59  82 S10G22    30.02R
6HR MIN TEMP:  62; 6HR MAX TEMP:  68; 6HR PCP: TRACE;

LAWTON/FT SILL PTSUNNY   64  59  82 S16G24    30.01R
FREDERICK      MOSUNNY   67  60  78 SE16G25   29.96S
CLINTON        CLOUDY    65  59  81 S21G28    30.00R
HOBART         PTSUNNY   64  58  80 S7        30.00R
ALTUS AFB      PTSUNNY   67  61  81 SE14      29.97S
$$

OKZ018>020-024>031-210100-
CENTRAL OKLAHOMA

CITY           SKY/WX    TMP DP  RH WIND       PRES   REMARKS
OKLAHOMA CITY  CLOUDY    67  56  67 SE15      30.00F
6HR MIN TEMP:  65; 6HR MAX TEMP:  75; 6HR PCP: TRACE;

OKC/WILEY POST CLOUDY    68  53  58 S14       30.00F
OKC/TINKER AFB PTSUNNY   63  59  85 SE13      29.99F
STILLWATER     CLOUDY    69  55  60 S14       30.01F
GUTHRIE        CLOUDY    68  55  63 S10       30.00F
$$

OKZ008-013-054>072-210100-
NORTHEAST OKLAHOMA

CITY           SKY/WX    TMP DP  RH WIND       PRES   REMARKS
TULSA          CLOUDY    73  55  53 S15       30.02S
6HR MIN TEMP:  70; 6HR MAX TEMP:  76; 6HR PCP: TRACE;

TULSA/JONES    LGT RAIN  70  58  65 S10       30.04S
PONCA CITY     CLOUDY    73  55  53 S7        29.99F
BARTLESVILLE   CLOUDY    73  54  51 S10       30.02S
MUSKOGEE       CLOUDY    72  56  57 SW6       30.05F
$$

OKZ032-040>043-046>053-073>077-210100-
SOUTH CENTRAL/SOUTHEAST OKLAHOMA

CITY           SKY/WX    TMP DP  RH WIND       PRES   REMARKS
ARDMORE/DWNTWN   N/A     61  59  94 S6        30.06S
MCALESTER      LGT RAIN  72  56  57 S9        30.07R
$$




USA.gov is the U.S. government's official web portal to all federal, state and local government web resources and services.